Location: Caltech
(34.1382°N, 118.1253°W)
Time: 08:53:33
(UTC-07:00)

Iridium 3 - Visible Passes

Search period start: 29 April 2016 00:00
Search period end: 09 May 2016 00:00
Orbit: 776 x 779 km, 86.4° (Epoch: 29 April)

Date Brightness Start Highest point End Pass type
(mag) Time Alt. Az. Time Alt. Az. Time Alt. Az.
29 Apr 7.0 02:54:40 10° N 02:57:21 31° NNW 02:57:21 31° NNW visible
30 Apr 7.2 02:21:10 10° N 02:23:49 30° NNE 02:23:49 30° NNE visible
01 May 7.7 01:48:03 10° NNE 01:50:16 22° NE 01:50:16 22° NE visible
01 May 7.5 03:29:11 10° NNW 03:30:44 16° NW 03:30:44 16° NW visible
02 May 8.1 01:15:35 10° NE 01:16:45 14° NE 01:16:45 14° NE visible
02 May 7.2 02:54:57 10° NNW 02:57:13 24° NNW 02:57:13 24° NNW visible
03 May 7.2 02:21:11 10° N 02:23:41 29° N 02:23:41 29° N visible
04 May 7.5 01:47:49 10° N 01:50:10 26° NNE 01:50:10 26° NNE visible
04 May 7.8 03:30:10 10° NW 03:30:38 11° NW 03:30:38 11° NW visible
05 May 7.9 01:14:55 10° NNE 01:16:40 18° NE 01:16:40 18° NE visible
05 May 7.5 02:55:22 10° NNW 02:57:08 19° NW 02:57:08 19° NW visible
06 May 8.3 00:43:00 10° NE 00:43:10 10° NE 00:43:10 10° NE visible
06 May 7.3 02:21:21 10° N 02:23:38 26° NNW 02:23:38 26° NNW visible
07 May 7.3 01:47:45 10° N 01:50:08 28° N 01:50:08 28° N visible
08 May 7.6 01:14:32 10° NNE 01:16:39 22° NNE 01:16:39 22° NNE visible
08 May 7.8 02:56:03 10° NW 02:57:07 14° NW 02:57:07 14° NW visible
